FW0807 Weather Reports


Display with metric or nautical units.
time (UTC)temp
F
wind
direction
speed
MPH
gust
MPH
rain 1hr
in
rain 24hr
in
rain mn
in
humidity
%
barometer
mb
20260503000012 64 338 4.0 11.0 0.00 0.00 0.00 43 1018.3
20260502234619 65 9 3.0 9.0 0.00 0.00 0.00 43 1018.2
20260502233012 65 355 2.0 10.0 0.00 0.00 0.00 41 1018.1
20260502231510 66 28 3.0 10.0 0.00 0.00 0.00 41 1018.1
20260502230010 66 348 7.0 12.0 0.00 0.00 0.00 39 1018.1
20260502224508 67 360 6.0 11.0 0.00 0.00 0.00 39 1017.9
20260502223008 67 344 3.0 12.0 0.00 0.00 0.00 41 1018.0
20260502221507 67 289 4.0 14.0 0.00 0.00 0.00 41 1017.9
20260502220012 65 5 3.0 11.0 0.00 0.00 0.00 39 1017.9
20260502214506 68 5 5.0 11.0 0.00 0.00 0.00 38 1017.8
20260502213009 67 293 5.0 12.0 0.00 0.00 0.00 39 1018.0
20260502211505 67 314 6.0 11.0 0.00 0.00 0.00 38 1018.0
20260502210004 67 339 2.0 14.0 0.00 0.00 0.00 41 1018.1
20260502204504 66 287 5.0 12.0 0.00 0.00 0.00 38 1018.1
20260502203003 67 28 8.0 16.0 0.00 0.00 0.00 41 1018.3
20260502201505 67 317 5.0 18.0 0.00 0.00 0.00 41 1018.3
20260502200113 68 355 6.0 18.0 0.00 0.00 0.00 36 1018.3
20260502194604 66 21 5.0 16.0 0.00 0.00 0.00 37 1018.4
20260502193116 67 5 6.0 14.0 0.00 0.00 0.00 39 1018.5
20260502191601 67 302 5.0 15.0 0.00 0.00 0.00 40 1018.6
20260502190058 69 313 4.0 14.0 0.00 0.00 0.00 39 1018.6
20260502184603 66 347 4.0 13.0 0.00 0.00 0.00 44 1018.7
20260502183059 68 42 8.0 19.0 0.00 0.00 0.00 42 1018.7
20260502181555 67 313 6.0 21.0 0.00 0.00 0.00 45 1018.7
20260502163039 65 344 5.0 10.0 0.00 0.00 0.00 45 1019.5
20260502161536 65 289 2.0 12.0 0.00 0.00 0.00 48 1019.5
20260502151522 61 315 1.0 8.0 0.00 0.00 0.00 56 1019.4
20260502123036 44 259 1.0 3.0 0.00 0.00 0.00 94 1019.0
20260502121535 42 259 0.0 0.0 0.00 0.00 0.00 94 1018.7
20260502114530 40 286 2.0 4.0 0.00 0.00 0.00 96 1018.7
20260502113028 38 66 0.0 0.0 0.00 0.00 0.00 95 1018.4
20260502111525 38 66 0.0 0.0 0.00 0.00 0.00 95 1018.4
20260502110023 38 66 0.0 0.0 0.00 0.00 0.00 95 1018.3
20260502104605 38 66 0.0 0.0 0.00 0.00 0.00 95 1018.1
20260502103052 38 66 0.0 0.0 0.00 0.00 0.00 95 1017.9
20260502101606 38 66 0.0 0.0 0.00 0.00 0.00 94 1017.8
20260502071530 44 78 0.0 0.0 0.00 0.00 0.00 91 1017.7
20260502070043 44 78 0.0 0.0 0.00 0.00 0.00 90 1018.1
20260502064526 44 104 0.0 0.0 0.00 0.00 0.00 90 1018.3
20260502063031 44 104 0.0 0.0 0.00 0.00 0.00 90 1018.4
20260502061524 44 104 0.0 0.0 0.00 0.00 0.00 89 1018.4
20260502060033 45 104 0.0 0.0 0.00 0.00 0.00 88 1018.5
20260502054531 46 15 0.0 0.0 0.00 0.00 0.00 87 1018.4
20260502053016 46 15 0.0 0.0 0.00 0.00 0.00 87 1018.4
20260502051513 47 15 0.0 0.0 0.00 0.00 0.00 85 1018.3
20260502050018 48 15 0.0 0.0 0.00 0.00 0.00 83 1018.2
20260502044507 49 14 0.0 0.0 0.00 0.00 0.00 80 1018.0
20260502043007 49 10 0.0 0.0 0.00 0.00 0.00 78 1017.9
20260502041520 50 15 0.0 0.0 0.00 0.00 0.00 79 1017.9
20260502040007 49 22 0.0 0.0 0.00 0.00 0.00 82 1017.9
20260502034506 50 23 0.0 0.0 0.00 0.00 0.00 80 1018.0
20260502033006 50 23 0.0 0.0 0.00 0.00 0.00 83 1018.1
20260502031505 50 23 0.0 0.0 0.00 0.00 0.00 81 1018.3
20260502030004 50 24 0.0 0.0 0.00 0.00 0.00 81 1018.3
20260502024503 51 25 0.0 0.0 0.00 0.00 0.00 78 1018.3
20260502023007 53 9 0.0 0.0 0.00 0.00 0.00 73 1018.4
20260502021504 52 19 0.0 0.0 0.00 0.00 0.00 74 1018.2
20260502020002 53 19 0.0 0.0 0.00 0.00 0.00 73 1018.1
20260502014500 54 19 0.0 0.0 0.00 0.00 0.00 72 1018.0
20260502013104 55 19 0.0 0.0 0.00 0.00 0.00 68 1017.8
20260502011608 56 19 0.0 0.0 0.00 0.00 0.00 63 1017.7
20260502010100 58 19 0.0 0.0 0.00 0.00 0.00 55 1017.4
20260502004558 60 355 0.0 4.0 0.00 0.00 0.00 47 1017.0
20260502003057 61 15 2.0 6.0 0.00 0.00 0.00 46 1016.7
20260502001602 62 41 0.0 3.0 0.00 0.00 0.00 55 1016.3